www.pogodaiklimat.ru

Погода и климат >> Архив погоды >> Россия >> Бурятия >> Кабанск


ПОГОДА в Кабанске

  • Прогноз погоды в Кабанске
  • Монитор погоды в Кабанске

АРХИВ ПОГОДЫ в Кабанске

Время (UTC), дата Ветер
(напр.,м/с)
 
Видим.   Явления Облачность Т
(С)
Тd
(С)
f
(%)
Тe
(С)
Тes
(С)
Комфортность P
(гПа)
Po
(гПа)
Тmin
(С)
Tmax
(С)
R
(мм)
R24
(мм)
S
(см)
18 10.09 СЗ 1 н/о 6 баллов +9.6 +8.5 93 +9 +9 1015.2 960.0
21 10.09 штиль 0 н/о 6 баллов +8.9 +8.0 94 +8 +8 1015.3 960.0
00 11.09 штиль 0 50 км 6/3 300 м
[St Ac cast]
+9.9 +8.6 92 +9 +10 1014.1 959.0 +7.1
03 11.09 В 1 50 км 6 баллов +16.2 +9.8 66 +17 +21 1012.5 958.7
06 11.09 С 4 50 км 6/4 600 м
[Cb cap Ac cast]
+17.7 +8.3 54 +17 +20 1009.4 956.0
09 11.09 С 4 50 км 7 баллов +16.5 +8.2 58 +16 +16 1005.4 952.0
12 11.09 З 7
{10}
н/о 10/6 600 м
[Cb cap Ac As]
+13.4 +7.8 69 +11 +11 1007.6 953.4 +19.1
15 11.09 СЗ 2
{11}
н/о слаб. ливневой дождь 10/10 600 м
[Cb cap]
+10.1 +9.2 94 +8 +8 1009.2 954.4
18 11.09 З 3 н/о в посл. час ливневой дождь 10 баллов +8.8 +8.2 96 +6 +6 1011.1 956.0
21 11.09 З 4 н/о 10 баллов +8.3 +7.1 92 +5 +5 1011.3 956.0
00 12.09 З 5 50 км {ливн. осадки} 9/9 600 м
[Cb cap]
+9.3 +7.3 87 +6 +6 1011.7 956.6 +8.2 12
03 12.09 З 6-10
{10}
50 км 8/8 600 м
[Cb cap Ac trans]
+12.7 +7.9 73 +10 +11 1012.4 957.9
06 12.09 З 6
{11}
50 км 4/4 600 м
[Cb cap]
+15.5 +6.8 56 +14 +16 1011.2 957.3
09 12.09 З 5 50 км 3/3 600 м
[Cb cap]
+15.7 +5.9 52 +15 +16 1011.2 957.3
12 12.09 СВ 1 н/о 8/6 600 м
[Cb cap Ac cast]
+12.1 +7.2 72 +12 +12 1012.3 957.7 +16.2
15 12.09 З 4 н/о слаб. ливневой дождь 10/10 600 м
[Cb cap]
+8.8 +6.9 88 +6 +6 1015.4 960.0
18 12.09 ЮЗ 2
{15}
н/о ливневой дождь 10/10 600 м
[Cb cap]
+5.7 +5.0 95 +3 +3 1018.4 962.2
21 12.09 З 5 н/о {ливн. осадки} 8/6 600 м
[Cb cap Ci sp]
+6.0 +4.9 93 +2 +2 1017.5 961.4
00 13.09 ЮЗ 2 50 км {ливн. осадки} 3/3 600 м
[Sc]
+6.8 +5.2 90 +4 +5 1017.9 961.9 +4.6 12
03 13.09 З 3 50 км 8/5 600 м
[Sc Ci fib]
+10.8 +3.3 60 +9 +11 1017.9 962.7
06 13.09 СВ 1 50 км 3/3 600 м
[Cb calv Ac trans]
+14.4 +3.5 48 +15 +23 1014.3 960.0
09 13.09 З 4 50 км 8/3 600 м
[Cb cap Ac trans]
+15.5 +0.9 37 +15 +15 1012.8 958.7
12 13.09 В 1 н/о 9/9 600 м
[Cb cap]
+10.7 +5.5 70 +11 +11 1011.3 956.5 +15.7
15 13.09 СВ 2 н/о 10/9 600 м
[Cb cap Ac As]
+9.6 +5.6 76 +8 +8 1011.0 956.0
18 13.09 СВ 1 н/о 10/10 600 м
[Sc]
+8.4 +5.5 82 +8 +8 1011.3 956.0
21 13.09 ЮВ 1 н/о 10/10 600 м
[Sc]
+6.4 +4.9 90 +5 +5 1010.3 954.7
00 14.09 ЮВ 2 50 км 10/1 600 м
[Sc Ac lent Ci sp]
+6.8 +5.3 90 +4 +5 1009.8 954.3 +5.8
03 14.09 З 5 50 км 8/3 1000 м
[Sc Ac lent Ci fib]
+12.4 +6.4 67 +10 +11 1010.4 956.0
06 14.09 СЗ 4
{10}
50 км слаб. ливневой дождь, в посл. час гроза 9/9 600 м
[Cb cap]
+8.5 +5.0 79 +5 +6 1012.3 956.9
09 14.09 СЗ 6-10
{10}
50 км {ливн. осадки} 8/6 600 м
[Cb cap Ac As]
+8.8 +1.4 60 +5 +5 1014.5 959.0
12 14.09 З 4
{12}
н/о {ливн. осадки} 8/6 600 м
[Cb cap Ac As]
+6.3 -2.3 54 +3 +3 1017.3 961.1 +14.7 2
15 14.09 СЗ 3
{10}
н/о 10/8 600 м
[Cb cap Ac As]
+4.0 -2.8 61 +1 +1 1022.1 965.3
18 14.09 З 2 н/о 3/0
[Ac trans Ci fib]
-2.0 -4.7 82 -6 -6 1024.9 966.7
21 14.09 ЮВ 1 н/о ясно -1.7 -4.4 82 -4 -4 1023.3 965.3
00 15.09 ЮВ 2 50 км 3/0
[Ci fib]
+1.2 -2.6 76 -2 -1 1022.0 964.6 -2.0
03 15.09 В 2 50 км 10 баллов +8.3 -2.9 45 +7 +7 1019.8 964.0
06 15.09 СЗ 2 50 км 8/3 600 м
[Sc Ac lent Cc]
+12.3 -1.3 39 +12 +14 1016.2 961.3
09 15.09 З 4 50 км 10 баллов +13.1 -0.2 40 +12 +12 1014.6 960.0
12 15.09 СВ 1 н/о 10/10 600 м
[Cb cap]
+9.1 +2.8 65 +9 +9 1014.4 959.0 +13.5
15 15.09 В 3 н/о в посл. час ливневой дождь 10 баллов +7.2 +4.8 85 +4 +4 1015.7 960.0
18 15.09 СВ 1 н/о 6 баллов +5.6 +3.3 85 +4 +4 1014.7 958.7
21 15.09 штиль 0 н/о 9 баллов +4.7 +3.4 91 +4 +4 1014.9 958.7
00 16.09 ЮВ 1 50 км 10/6 600 м
[Cb cap Ac lent Ci sp]
+5.4 +3.8 89 +4 +4 1014.5 958.4 +2.7 0.6
03 16.09 З 6
{10}
50 км в посл. час ливневой дождь 10/8 600 м
[Cb cap Ac As]
+11.1 +6.6 74 +8 +8 1014.0 959.1
06 16.09 З 6-10
{10}
50 км {ливн. осадки} 10/10 600 м
[Cb cap]
+12.4 +6.7 68 +10 +10 1014.0 959.3
09 16.09 З 7-10
{10}
50 км {ливн. осадки} 10/8 300 м
[Cb cap Ac lent Ci fib]
+10.6 +5.8 72 +7 +7 1016.4 961.3
12 16.09 З 4
{12}
н/о {ливн. осадки} 3/3 600 м
[Sc diur, vesp]
+7.1 +0.5 63 +4 +4 1019.4 963.4 +12.9 0.3
15 16.09 СЗ 2 н/о 2 балла +3.4 -1.0 73 +1 +1 1025.1 968.0
18 16.09 СЗ 2 н/о 7 баллов -0.8 -2.8 86 -5 -5 1027.4 969.3
21 16.09 Ю 1 н/о 6 баллов +0.7 -2.3 80 -1 -1 1028.5 970.7
00 17.09 ЮВ 1 50 км 4/1 600 м
[Sc Cc]
+2.8 -1.1 75 +1 +2 1029.0 971.6 -1.0
03 17.09 Ю 2 50 км 6 баллов +9.4 -2.5 43 +8 +11 1028.1 972.0
06 17.09 СЗ 2 50 км 2 балла +13.1 -0.9 38 +13 +19 1025.9 970.7
12 17.09 ЮВ 1 н/о ясно +9.3 +1.7 59 +9 +9 1025.2 969.3 +14.8

 

Местоположение метеостанции Кабанск (Бурятия, Россия): широта 52.05 долгота 106.60 высота над уровнем моря 467 м.

В архиве по умолчанию представлена погода в Кабанске за последнюю неделю. Архивные данные за месяц целиком и за предыдущие месяцы, начиная с января 2011 года, Вы можете получить, выбрав интересующий диапазон дат из раскрывающегося списка и нажав кнопку "Ввод!".


*Определитесь, кто Вы:
робот инопланетянин человек

Внимание! Время в таблицах - всемирное. Для получения местного времени необходимо прибавить поправку, которая равна 8 ч.

Смотрите также архив погоды в соседних городах и на ближайших метеорологических станциях:

Погода в Иволгинске (Бурятия, Россия) (53 км)
Погода в Сухой (Бурятия, Россия) (65 км)
Погода в Бабушкине (Бурятия, Россия) (67 км)
Погода в Улан-Удэ (Бурятия, Россия) (73 км)
Погода в Большом Голоустном (Иркутская область, Россия) (82 км)
Погода в Улан-Удэ АМС (Бурятия, Россия) (83 км)
Погода в Новоселенгинске (Бурятия, Россия) (106 км)
Погода в Танхое (Бурятия, Россия) (117 км)
Погода в Новой Курбе (Бурятия, Россия) (131 км)
Погода в Худжире (Иркутская область, Россия) (136 км)

Пояснения к столбцам:

Ветер - указаны скорость ветра в м/с - средняя за 10 мин, порывы в срок и между сроками (в фигурных скобках) и направление, откуда дует ветер: С - северный, СВ - северо-восточный, В - восточный, ЮВ - юго-восточный, Ю - южный, ЮЗ - юго-западный, З - западный, СЗ - северо-западный.
Видимость - горизонтальная дальность видимости в метрах или километрах. При видимости от 1 до 10 км при отсутствии осадков обычно наблюдается дымка, при ухудшении видимости до 1 км и менее - туман. В сухую погоду видимость может ухудшаться дымом, пылью или мглою.
Явления - указаны атмосферные явления, наблюдавшиеся в срок или в последний час перед сроком; фигурными скобками обозначены явления, наблюдавшиеся между сроками (за 1-3 часа до срока); квадратными скобками обозначены град или гололедные отложения с указанием их диаметра в мм.
Облачность - указаны через наклонную черту общая и нижняя облачность в баллах и высота нижней границы облаков в метрах; квадратными скобками обозначены формы облаков: Ci - перистые, Cs - перисто-слоистые, Cc - перисто-кучевые, Ac - высококучевые, As - высокослоистые, Sc - слоисто-кучевые, Ns - слоисто-дождевые, Cu - кучевые, Cb - кучево-дождевые. Подробнее классификацию облаков см. в Атласе облаков (PDF).
T - Температура воздуха - температура, измеренная на высоте 2 м над землей.
Td - Температура точки росы - температура, при понижении до которой содержащийся в воздухе водяной пар достигнет насыщения.
f - Относительная влажность воздуха - влажноcть воздуха, измеренная на высоте 2 м над землей.
Te - Эффективная температура - температура, которую ощущает одетый по сезону человек в тени. Характеристика душности погоды. При расчете учитывается влияние влажности воздуха и скорости ветра на теплоощущения человека.
Tes - Эффективная температура на солнце - температура, которую ощущает человек, с поправкой на солнечный нагрев. Характеристика знойности погоды. Зависит от высоты солнца над горизонтом, облачности и скорости ветра. Ночью, в пасмурную погоду, а также при ветре 12 м/с и более поправка равна нулю.
P - Атмосферное давление - приведенное к уровню моря атмосферное давление.
Po - Атмосферное давление - измеренное на уровне метеостанции атмосферное давление.
Tmin - Минимальная температура - минимум температуры воздуха на высоте 2 м над землей.
Tmax - Максимальная температура - максимум температуры воздуха на высоте 2 м над землей.
R - Количество осадков - Количество выпавших осадков за период времени, мм. При наведении курсора мыши на число - период времени, за который выпало указанное количество осадков.
R24 - Количество осадков - Количество выпавших осадков за 24 часа, мм.
S - Снежный покров - Высота снежного покрова, см. При наведении курсора мыши на число - состояние снежного покрова и степень покрытия местности в баллах.